When you browse on this site, cookies collect data to enhance your experience and personalize the content and advertising you see.
Visit our Privacy Policy to learn more. By continuing to use the site, you agree to this use of cookies and data.
  • în România
  • Lista ţărilor
  • Pe 7 zile
  • Temperatura apei
  • Hartă satelitară
  • Meteo pe hartă
  • Widget-uri
  • user-avatar
    Intrare

    Meteo pe oră la Camarillo

    Astăzi, 22 Februarie, Vineri

    Timp Temperatura Precipitaţii Vânt Presiune Umiditate
    00:00 +7°C° 0 mm 3 m/s 754 mmHg 58%
    01:00 +7°C° 0 mm 2 m/s 754 mmHg 59%
    02:00 +6°C° 0 mm 2 m/s 755 mmHg 58%
    03:00 +6°C° 0 mm 2 m/s 755 mmHg 58%
    04:00 +6°C° 0 mm 2 m/s 756 mmHg 58%
    05:00 +6°C° 0 mm 2 m/s 756 mmHg 57%
    06:00 +6°C° 0 mm 2 m/s 757 mmHg 56%
    07:00 +5°C° 0 mm 2 m/s 758 mmHg 54%
    08:00 +8°C° 0 mm 2 m/s 758 mmHg 46%
    09:00 +10°C° 0 mm 2 m/s 759 mmHg 38%
    10:00 +14°C° 0 mm 2 m/s 759 mmHg 30%
    11:00 +15°C° 0 mm 2 m/s 759 mmHg 29%
    12:00 +14°C° 0 mm 3 m/s 759 mmHg 28%
    13:00 +16°C° 0 mm 3 m/s 759 mmHg 27%
    14:00 +15°C° 0 mm 4 m/s 759 mmHg 31%
    15:00 +14°C° 0 mm 4 m/s 760 mmHg 35%
    16:00 +14°C° 0 mm 4 m/s 760 mmHg 39%
    17:00 +12°C° 0 mm 3 m/s 760 mmHg 45%
    18:00 +11°C° 0 mm 3 m/s 761 mmHg 51%
    19:00 +10°C° 0 mm 2 m/s 761 mmHg 57%
    20:00 +9°C° 0 mm 2 m/s 762 mmHg 53%
    21:00 +9°C° 0 mm 2 m/s 762 mmHg 50%
    22:00 +9°C° 0 mm 2 m/s 763 mmHg 47%
    23:00 +9°C° 0 mm 2 m/s 763 mmHg 44%

    Mâine, 23 Februarie, Sâmbătă

    Timp Temperatura Precipitaţii Vânt Presiune Umiditate
    00:00 +8°C° 0 mm 2 m/s 764 mmHg 42%
    01:00 +8°C° 0 mm 3 m/s 764 mmHg 39%
    02:00 +8°C° 0 mm 3 m/s 764 mmHg 39%
    03:00 +8°C° 0 mm 3 m/s 764 mmHg 40%
    04:00 +8°C° 0 mm 3 m/s 764 mmHg 40%
    05:00 +8°C° 0 mm 3 m/s 764 mmHg 41%
    06:00 +8°C° 0 mm 3 m/s 765 mmHg 41%
    07:00 +8°C° 0 mm 3 m/s 765 mmHg 41%
    08:00 +10°C° 0 mm 3 m/s 765 mmHg 42%
    09:00 +12°C° 0 mm 3 m/s 765 mmHg 43%
    10:00 +13°C° 0 mm 3 m/s 766 mmHg 44%
    11:00 +14°C° 0 mm 3 m/s 765 mmHg 43%
    12:00 +16°C° 0 mm 3 m/s 765 mmHg 43%
    13:00 +17°C° 0 mm 3 m/s 765 mmHg 42%
    14:00 +16°C° 0 mm 3 m/s 764 mmHg 44%
    15:00 +16°C° 0 mm 2 m/s 764 mmHg 47%
    16:00 +16°C° 0 mm 2 m/s 764 mmHg 50%
    17:00 +14°C° 0 mm 2 m/s 764 mmHg 55%
    18:00 +13°C° 0 mm 1 m/s 764 mmHg 61%
    19:00 +12°C° 0 mm 1 m/s 765 mmHg 66%
    20:00 +12°C° 0 mm 1 m/s 765 mmHg 66%
    21:00 +12°C° 0 mm 1 m/s 765 mmHg 65%
    22:00 +11°C° 0 mm 1 m/s 765 mmHg 65%
    23:00 +11°C° 0 mm 1 m/s 765 mmHg 62%

    Poimâine, 24 Februarie, Duminică

    Timp Temperatura Precipitaţii Vânt Presiune Umiditate
    00:00 +11°C° 0 mm 1 m/s 765 mmHg 60%
    01:00 +11°C° 0 mm 1 m/s 764 mmHg 58%
    02:00 +11°C° 0 mm 1 m/s 764 mmHg 57%
    03:00 +10°C° 0 mm 0 m/s 764 mmHg 56%
    04:00 +9°C° 0 mm 0 m/s 763 mmHg 56%
    05:00 +9°C° 0 mm 0 m/s 763 mmHg 56%
    06:00 +10°C° 0 mm 1 m/s 763 mmHg 56%
    07:00 +10°C° 0 mm 1 m/s 763 mmHg 56%
    08:00 +13°C° 0 mm 1 m/s 763 mmHg 50%
    09:00 +15°C° 0 mm 1 m/s 763 mmHg 44%
    10:00 +18°C° 0 mm 1 m/s 763 mmHg 39%
    11:00 +18°C° 0 mm 2 m/s 763 mmHg 39%
    12:00 +19°C° 0 mm 2 m/s 762 mmHg 40%
    13:00 +19°C° 0 mm 3 m/s 762 mmHg 40%
    14:00 +19°C° 0 mm 3 m/s 761 mmHg 43%
    15:00 +18°C° 0 mm 3 m/s 761 mmHg 46%
    16:00 +18°C° 0 mm 3 m/s 761 mmHg 48%
    17:00 +17°C° 0 mm 2 m/s 761 mmHg 54%
    18:00 +15°C° 0 mm 2 m/s 761 mmHg 60%
    19:00 +14°C° 0 mm 1 m/s 761 mmHg 65%
    20:00 +13°C° 0 mm 1 m/s 761 mmHg 65%
    21:00 +13°C° 0 mm 1 m/s 761 mmHg 65%
    22:00 +12°C° 0 mm 0 m/s 762 mmHg 65%
    23:00 +12°C° 0 mm 0 m/s 761 mmHg 66%

    25 Februarie, Luni

    Timp Temperatura Precipitaţii Vânt Presiune Umiditate
    00:00 +11°C° 0 mm 0 m/s 761 mmHg 66%
    01:00 +11°C° 0 mm 0 m/s 761 mmHg 67%
    02:00 +11°C° 0 mm 0 m/s 761 mmHg 67%
    03:00 +12°C° 0 mm 1 m/s 760 mmHg 67%
    04:00 +12°C° 0 mm 1 m/s 760 mmHg 67%
    05:00 +12°C° 0 mm 1 m/s 760 mmHg 67%
    06:00 +12°C° 0 mm 1 m/s 760 mmHg 67%
    07:00 +12°C° 0 mm 1 m/s 760 mmHg 67%
    08:00 +14°C° 0 mm 1 m/s 761 mmHg 61%
    09:00 +16°C° 0 mm 1 m/s 761 mmHg 55%
    10:00 +19°C° 0 mm 1 m/s 761 mmHg 49%
    11:00 +20°C° 0 mm 1 m/s 761 mmHg 46%
    12:00 +19°C° 0 mm 2 m/s 760 mmHg 43%
    13:00 +20°C° 0 mm 3 m/s 760 mmHg 40%
    14:00 +20°C° 0 mm 3 m/s 760 mmHg 44%
    15:00 +19°C° 0 mm 3 m/s 759 mmHg 47%
    16:00 +19°C° 0 mm 3 m/s 759 mmHg 50%
    17:00 +17°C° 0 mm 2 m/s 759 mmHg 58%
    18:00 +15°C° 0 mm 2 m/s 760 mmHg 67%
    19:00 +13°C° 0 mm 1 m/s 760 mmHg 76%
    20:00 +13°C° 0 mm 1 m/s 760 mmHg 76%
    21:00 +13°C° 0 mm 1 m/s 760 mmHg 76%
    22:00 +11°C° 0 mm 0 m/s 761 mmHg 76%
    23:00 +11°C° 0 mm 0 m/s 761 mmHg 75%

    26 Februarie, Marţi

    Timp Temperatura Precipitaţii Vânt Presiune Umiditate
    00:00 +11°C° 0 mm 0 m/s 760 mmHg 73%
    01:00 +11°C° 0 mm 0 m/s 760 mmHg 72%
    02:00 +11°C° 0 mm 1 m/s 760 mmHg 70%
    03:00 +11°C° 0 mm 1 m/s 760 mmHg 68%
    04:00 +11°C° 0 mm 1 m/s 760 mmHg 66%
    05:00 +11°C° 0 mm 1 m/s 760 mmHg 62%
    06:00 +11°C° 0 mm 1 m/s 761 mmHg 59%
    07:00 +12°C° 0 mm 1 m/s 761 mmHg 55%
    08:00 +13°C° 0 mm 1 m/s 761 mmHg 49%
    09:00 +15°C° 0 mm 2 m/s 761 mmHg 44%
    10:00 +17°C° 0 mm 2 m/s 761 mmHg 38%
    11:00 +18°C° 0 mm 2 m/s 761 mmHg 36%
    12:00 +19°C° 0 mm 2 m/s 760 mmHg 34%
    13:00 +19°C° 0 mm 2 m/s 760 mmHg 32%
    14:00 +19°C° 0 mm 3 m/s 760 mmHg 36%
    15:00 +19°C° 0 mm 3 m/s 760 mmHg 39%
    16:00 +18°C° 0 mm 4 m/s 760 mmHg 42%
    17:00 +17°C° 0 mm 3 m/s 760 mmHg 52%
    18:00 +15°C° 0 mm 2 m/s 760 mmHg 62%
    19:00 +13°C° 0 mm 2 m/s 761 mmHg 71%
    20:00 +13°C° 0 mm 2 m/s 761 mmHg 72%
    21:00 +13°C° 0 mm 2 m/s 761 mmHg 73%
    22:00 +12°C° 0 mm 1 m/s 762 mmHg 74%
    23:00 +12°C° 0 mm 1 m/s 762 mmHg 73%

    27 Februarie, Miercuri

    Timp Temperatura Precipitaţii Vânt Presiune Umiditate
    00:00 +12°C° 0 mm 1 m/s 762 mmHg 72%
    01:00 +12°C° 0 mm 1 m/s 762 mmHg 70%
    02:00 +12°C° 0 mm 1 m/s 762 mmHg 70%
    03:00 +12°C° 0 mm 1 m/s 761 mmHg 70%
    04:00 +12°C° 0 mm 1 m/s 761 mmHg 69%
    05:00 +12°C° 0 mm 1 m/s 762 mmHg 69%
    06:00 +12°C° 0 mm 1 m/s 762 mmHg 69%
    07:00 +12°C° 0 mm 1 m/s 763 mmHg 68%
    08:00 +14°C° 0 mm 1 m/s 763 mmHg 62%
    09:00 +17°C° 0 mm 2 m/s 763 mmHg 55%
    10:00 +19°C° 0 mm 2 m/s 763 mmHg 48%
    11:00 +20°C° 0 mm 3 m/s 763 mmHg 49%
    12:00 +20°C° 0 mm 3 m/s 762 mmHg 49%
    13:00 +21°C° 0 mm 4 m/s 762 mmHg 50%
    14:00 +21°C° 0 mm 4 m/s 762 mmHg 54%
    15:00 +21°C° 0 mm 5 m/s 762 mmHg 58%
    16:00 +21°C° 0 mm 5 m/s 762 mmHg 62%
    17:00 +19°C° 0 mm 4 m/s 762 mmHg 68%
    18:00 +18°C° 0 mm 3 m/s 762 mmHg 75%
    19:00 +16°C° 0 mm 2 m/s 762 mmHg 82%
    20:00 +16°C° 0 mm 2 m/s 762 mmHg 81%
    21:00 +16°C° 0 mm 1 m/s 762 mmHg 79%
    22:00 +15°C° 0 mm 1 m/s 763 mmHg 78%
    23:00 +15°C° 0 mm 1 m/s 762 mmHg 77%
    Arată mai mult